FW2784 Weather Reports


time (UTC)temp
C
wind
direction
speed
KPH
gust
KPH
rain 1hr
cm
rain 24hr
cm
rain mn
cm
humidity
%
barometer
mb
20260504235001 23 355 4.8 9.7 0.00 0.00 0.00 46 1013.7
20260504234502 23 36 4.8 9.7 0.00 0.00 0.00 45 1013.7
20260504234000 23 355 4.8 12.9 0.00 0.00 0.00 44 1013.6
20260504233501 23 64 4.8 12.9 0.00 0.00 0.00 44 1013.8
20260504233001 23 46 4.8 12.9 0.00 0.00 0.00 43 1013.9
20260504232501 23 348 4.8 12.9 0.00 0.00 0.00 43 1014.1
20260504232001 23 340 6.4 16.1 0.00 0.00 0.00 41 1014.0
20260504231501 24 5 6.4 16.1 0.00 0.00 0.00 41 1013.9
20260504230500 24 30 6.4 14.5 0.00 0.00 0.00 40 1014.0
20260504230001 25 59 6.4 14.5 0.00 0.00 0.00 39 1014.0
20260504225502 25 61 4.8 14.5 0.00 0.00 0.00 41 1014.0
20260504225001 25 69 6.4 14.5 0.00 0.00 0.00 39 1014.0
20260504224501 25 32 8.0 14.5 0.00 0.00 0.00 39 1014.0
20260504223501 25 350 6.4 14.5 0.00 0.00 0.00 38 1014.1
20260504223001 25 47 8.0 19.3 0.00 0.00 0.00 38 1014.3
20260504222502 26 320 8.0 19.3 0.00 0.00 0.00 36 1014.2
20260504222001 26 48 6.4 19.3 0.00 0.00 0.00 36 1014.2
20260504221501 26 73 6.4 14.5 0.00 0.00 0.00 36 1014.3
20260504221000 26 76 6.4 14.5 0.00 0.00 0.00 35 1014.3
20260504220501 26 26 8.0 17.7 0.00 0.00 0.00 36 1014.3
20260504220003 26 73 8.0 19.3 0.00 0.00 0.00 38 1014.4
20260504215502 27 20 6.4 19.3 0.00 0.00 0.00 38 1014.3
20260504215001 27 62 4.8 17.7 0.00 0.00 0.00 37 1014.4
20260504214501 27 24 6.4 17.7 0.00 0.00 0.00 37 1014.5
20260504214001 27 348 6.4 16.1 0.00 0.00 0.00 37 1014.6
20260504213004 27 54 8.0 17.7 0.00 0.00 0.00 36 1014.7
20260504212001 28 50 6.4 14.5 0.00 0.00 0.00 37 1014.6
20260504211502 28 71 6.4 16.1 0.00 0.00 0.00 36 1014.5
20260504211001 28 62 6.4 16.1 0.00 0.00 0.00 36 1014.6
20260504210501 28 333 6.4 17.7 0.00 0.00 0.00 39 1014.5
20260504204501 28 91 6.4 16.1 0.00 0.00 0.00 35 1014.6
20260504204000 28 5 8.0 19.3 0.00 0.00 0.00 36 1014.6
20260504203500 28 347 9.7 19.3 0.00 0.00 0.00 35 1014.7
20260504203002 28 64 8.0 16.1 0.00 0.00 0.00 38 1014.7
20260504202501 28 40 6.4 14.5 0.00 0.00 0.00 37 1014.7
20260504202000 27 85 4.8 14.5 0.00 0.00 0.00 37 1014.7
20260504201001 27 84 4.8 14.5 0.00 0.00 0.00 38 1014.8
20260504200501 27 55 4.8 14.5 0.00 0.00 0.00 40 1014.9
20260504200004 27 360 4.8 14.5 0.00 0.00 0.00 40 1014.9
20260504195502 27 101 4.8 14.5 0.00 0.00 0.00 38 1015.2
20260504195001 27 16 6.4 17.7 0.00 0.00 0.00 38 1015.2
20260504194502 27 19 4.8 17.7 0.00 0.00 0.00 39 1015.3
20260504194001 26 35 3.2 14.5 0.00 0.00 0.00 40 1015.3
20260504193002 26 49 3.2 9.7 0.00 0.00 0.00 39 1015.4
20260504192501 26 48 4.8 14.5 0.00 0.00 0.00 39 1015.5
20260504192001 26 60 6.4 14.5 0.00 0.00 0.00 40 1015.6
20260504191502 26 321 4.8 12.9 0.00 0.00 0.00 41 1015.6
20260504191000 26 38 6.4 14.5 0.00 0.00 0.00 40 1015.5
20260504190003 26 74 4.8 14.5 0.00 0.00 0.00 43 1015.8
20260504185501 26 344 6.4 14.5 0.00 0.00 0.00 39 1016.0
20260504185001 26 39 4.8 14.5 0.00 0.00 0.00 42 1016.1
20260504184501 27 101 4.8 14.5 0.00 0.00 0.00 37 1016.0
20260504184002 27 70 4.8 14.5 0.00 0.00 0.00 42 1016.1
20260504183500 27 17 4.8 14.5 0.00 0.00 0.00 42 1016.2
20260504183001 26 87 3.2 11.3 0.00 0.00 0.00 43 1016.2
20260504182500 26 42 3.2 8.0 0.00 0.00 0.00 45 1016.4
20260504182001 26 166 3.2 12.9 0.00 0.00 0.00 41 1016.4
20260504180003 26 14 4.8 16.1 0.00 0.00 0.00 45 1016.6
20260504175001 26 91 4.8 12.9 0.00 0.00 0.00 43 1016.6
20260504174501 26 221 4.8 12.9 0.00 0.00 0.00 45 1016.7
20260504174001 25 54 4.8 12.9 0.00 0.00 0.00 45 1016.6
20260504173501 25 74 3.2 12.9 0.00 0.00 0.00 47 1016.8
20260504173001 25 42 3.2 9.7 0.00 0.00 0.00 46 1016.8
20260504172500 25 180 6.4 12.9 0.00 0.00 0.00 44 1017.0
20260504172001 25 77 4.8 12.9 0.00 0.00 0.00 45 1017.0
20260504171500 25 67 6.4 9.7 0.00 0.00 0.00 48 1017.1
20260504171001 25 49 6.4 17.7 0.00 0.00 0.00 44 1017.2
20260504151001 21 242 4.8 11.3 0.00 0.00 0.00 51 1017.9
20260504150502 22 109 6.4 14.5 0.00 0.00 0.00 51 1018.0
20260504141000 20 51 4.8 8.0 0.00 0.00 0.00 60 1018.5
20260504140500 20 78 4.8 9.7 0.00 0.00 0.00 60 1018.6
20260504130501 15 51 3.2 6.4 0.00 0.00 0.00 81 1018.6
20260504110501 6 265 0.0 0.0 0.00 0.00 0.00 91 1017.8
20260504100500 7 265 0.0 0.0 0.00 0.00 0.00 91 1017.8
20260504081501 7 265 0.0 0.0 0.00 0.00 0.00 89 1017.7
20260504081000 7 265 0.0 0.0 0.00 0.00 0.00 89 1017.7
20260504080500 7 265 0.0 0.0 0.00 0.00 0.00 90 1017.7
20260504050503 8 265 0.0 0.0 0.00 0.00 0.00 86 1018.8
20260504050005 8 265 0.0 0.0 0.00 0.00 0.00 86 1018.8
20260504045501 9 265 0.0 0.0 0.00 0.00 0.00 86 1018.8
20260504045001 9 265 1.6 1.6 0.00 0.00 0.00 86 1018.9
20260504044502 9 265 1.6 3.2 0.00 0.00 0.00 86 1018.9
20260504044001 9 265 1.6 3.2 0.00 0.00 0.00 86 1018.9
20260504043502 9 265 1.6 3.2 0.00 0.00 0.00 85 1018.9
20260504043001 9 265 0.0 1.6 0.00 0.00 0.00 85 1019.0
20260504042002 9 265 0.0 1.6 0.00 0.00 0.00 85 1019.1
20260504041501 9 265 1.6 1.6 0.00 0.00 0.00 85 1019.1
20260504040501 10 265 1.6 1.6 0.00 0.00 0.00 84 1019.2
20260504040003 10 265 1.6 1.6 0.00 0.00 0.00 84 1019.3
20260504035501 10 265 0.0 3.2 0.00 0.00 0.00 84 1019.3
20260504035001 10 265 0.0 3.2 0.00 0.00 0.00 83 1019.3
20260504034001 10 265 0.0 0.0 0.00 0.00 0.00 83 1019.5
20260504033501 10 265 0.0 0.0 0.00 0.00 0.00 82 1019.6
20260504033001 10 265 0.0 0.0 0.00 0.00 0.00 82 1019.6
20260504032001 10 265 0.0 0.0 0.00 0.00 0.00 81 1019.6
20260504031001 10 265 1.6 1.6 0.00 0.00 0.00 81 1019.6
20260504030006 10 265 1.6 1.6 0.00 0.00 0.00 80 1019.4
20260504025501 11 265 1.6 3.2 0.00 0.00 0.00 80 1019.4
20260504025001 11 265 1.6 3.2 0.00 0.00 0.00 80 1019.3
20260504024502 11 265 1.6 3.2 0.00 0.00 0.00 79 1019.3
20260504024002 11 265 1.6 3.2 0.00 0.00 0.00 79 1019.2
20260504023502 11 265 0.0 3.2 0.00 0.00 0.00 79 1019.2
20260504023002 11 265 0.0 3.2 0.00 0.00 0.00 78 1019.2
20260504022501 11 265 0.0 0.0 0.00 0.00 0.00 78 1019.2
20260504022001 11 265 0.0 1.6 0.00 0.00 0.00 78 1019.1
20260504021501 11 265 1.6 3.2 0.00 0.00 0.00 77 1019.0
20260504021002 11 265 0.0 3.2 0.00 0.00 0.00 76 1019.0
20260504020501 12 265 0.0 0.0 0.00 0.00 0.00 76 1019.1
20260504020004 12 265 0.0 0.0 0.00 0.00 0.00 75 1019.0
20260504015501 12 265 0.0 3.2 0.00 0.00 0.00 75 1019.0
20260504015001 12 265 0.0 3.2 0.00 0.00 0.00 75 1019.0
20260504014501 12 265 1.6 3.2 0.00 0.00 0.00 74 1019.1
20260504014001 12 265 1.6 3.2 0.00 0.00 0.00 73 1018.9
20260504013502 12 265 1.6 3.2 0.00 0.00 0.00 73 1018.8
20260504013004 13 265 1.6 3.2 0.00 0.00 0.00 71 1018.7
20260504012501 13 265 1.6 3.2 0.00 0.00 0.00 70 1018.6
20260504012001 13 265 1.6 3.2 0.00 0.00 0.00 70 1018.8
20260504011001 14 265 1.6 3.2 0.00 0.00 0.00 66 1018.7
20260504010501 14 265 1.6 3.2 0.00 0.00 0.00 64 1018.6
20260504010004 15 265 0.0 1.6 0.00 0.00 0.00 64 1018.4
20260504005500 15 265 1.6 3.2 0.00 0.00 0.00 61 1018.5
20260504005001 15 265 1.6 3.2 0.00 0.00 0.00 60 1018.4
20260504004501 16 265 0.0 3.2 0.00 0.00 0.00 60 1018.3
20260504004002 16 265 0.0 3.2 0.00 0.00 0.00 57 1018.3
20260504003501 16 265 0.0 1.6 0.00 0.00 0.00 56 1018.3
20260504003001 16 265 0.0 3.2 0.00 0.00 0.00 54 1018.2
20260504002501 17 265 0.0 3.2 0.00 0.00 0.00 52 1018.2
20260504001502 17 264 1.6 3.2 0.00 0.00 0.00 53 1018.3
20260504001007 18 264 1.6 3.2 0.00 0.00 0.00 55 1018.2
20260504000501 18 259 1.6 4.8 0.00 0.00 0.00 51 1018.2
20260504000003 18 338 1.6 4.8 0.00 0.00 0.00 48 1018.1
20260503235501 18 118 1.6 4.8 0.00 0.00 0.00 48 1018.2